Hourly Weather Roundup
Issued by NWS

Home | Current Version | Previous Version | Text Only | Print | Product List | Glossary On
Versions: 1 2 3 4 5 6 7 8 9 10 11 12 13 14 15 16 17 18 19 20 21 22 23 24 25 26 27 28 29 30 31 32 33 34 35 36 37 38 39 40 41 42 43 44 45 46 47 48 49 50
000
NZUS43 KILX 052010
HWRCRS

NWR HOURLY WEATHER ROUNDUP
NATIONAL WEATHER SERVICE, LINCOLN IL
200 PM CST MON DEC 05 2016


CITY           SKY/WX    TMP DP  RH WIND       PRES   REMARKS
CHAMPAIGN      CLOUDY    38  34  85 SE8       30.00F WCI  32
LAWRENCEVILLE  CLOUDY    43  36  76 SE10      30.02F
PEORIA         CLOUDY    36  35  96 SE12      29.97F WCI  28
SPRINGFIELD    CLOUDY    40  36  86 E9        29.96F FOG     WCI  34
$$


CITY           SKY/WX    TMP DP  RH WIND       PRES   REMARKS
BLOOMINGTON    CLOUDY    33  31  92 S14       29.98F FOG     WCI  23
DANVILLE       PTSUNNY   38  34  85 E6        29.99F WCI  34
DECATUR        CLOUDY    38  34  85 SE8       29.98F WCI  32
EFFINGHAM      PTSUNNY   42  37  83 E6        30.00F
FLORA          CLOUDY    41  36  80 SE8       29.99F
GALESBURG      CLOUDY    35  34  94 S8        29.94F WCI  29
JACKSONVILLE   PTSUNNY   40  37  86 SE12      29.93F WCI  34
LACON          CLOUDY    35  33  92 S7        29.98S WCI  29
LINCOLN        CLOUDY    38  36  94 S8        29.97F WCI  32
LITCHFIELD     MOSUNNY   40  36  84 SE9       29.95F WCI  34

CITY           SKY/WX    TMP DP  RH WIND       PRES   REMARKS
MACOMB         CLOUDY    38  37  99 S10       29.95F WCI  31
MATTOON        CLOUDY    41  33  73 SE8       29.98F
MOLINE         CLOUDY    36  33  89 SE10      29.93F FOG     WCI  28
OLNEY          PTSUNNY   39  37  93 SE8       30.00F WCI  34
PARIS          SUNNY     42  37  81 SE6       30.01F
PONTIAC        CLOUDY    33  33 100 S12       30.00F FOG     WCI  25
QUINCY         CLOUDY    39  37  92 S9        29.90F FOG     WCI  33
RANTOUL        CLOUDY    38  35  90 SE8       30.00F WCI  32
ROBINSON       MOSUNNY   42  35  78 SE8       30.02S
TAYLORVILLE    PTSUNNY   39  35  86 SE8       29.97F WCI  33
TERRE HAUTE    SUNNY     44  34  67 E5        30.01F
$$


CITY           SKY/WX    TMP DP  RH WIND       PRES   REMARKS
BURLINGTON     CLOUDY    35  35 100 S9        29.91F FOG     WCI  28
CHICAGO        CLOUDY    32  30  92 S10       30.00  WCI  24
DES MOINES     PTSUNNY   49  34  56 S24       29.77F
EVANSVILLE     CLOUDY    42  34  73 E8        30.00F
INDIANAPOLIS   PTSUNNY   42  33  70 E9        30.02F
KANSAS CITY    MOSUNNY   51  33  50 S14       29.76F
MILWAUKEE      CLOUDY    34  31  88 SW12      29.97S FOG     WCI  25
ST LOUIS       CLOUDY    46  34  62 SE12      29.94F
$$





USA.gov is the U.S. government's official web portal to all federal, state and local government web resources and services.